Location: Aranbee
(34.0885°N, 118.2342°W)
Time: 18:22:27
(UTC+00:00)

Altair - All Passes

Search period start: 04 December 2020 00:00
Search period end: 14 December 2020 00:00
Orbit: 1502 x 1682 km, 47.2° (Epoch: 03 December)

Date Brightness Start Highest point End Pass type
(mag) Time Alt. Az. Time Alt. Az. Time Alt. Az.
04 Dec - 00:20:30 10° S 00:28:03 26° SE 00:35:24 10° ENE daylight
04 Dec - 02:22:21 10° SW 02:31:59 90° SE 02:41:19 10° NE visible
04 Dec - 04:28:45 10° W 04:37:33 42° NNW 04:46:10 10° NE visible
04 Dec - 06:35:49 10° WNW 06:44:16 38° N 06:52:39 10° ENE visible
04 Dec - 08:41:01 10° NW 08:50:12 73° NNE 08:59:27 10° ESE night (unlit)
04 Dec - 10:46:18 10° WNW 10:54:23 36° SW 11:02:37 10° SSE visible
04 Dec - 23:55:49 10° S 00:02:59 24° SE 00:09:57 10° ENE daylight
05 Dec - 01:57:09 10° SW 02:06:49 84° SE 02:16:09 10° NE visible
05 Dec - 04:03:22 10° W 04:12:15 44° NNW 04:20:58 10° NE visible
05 Dec - 06:10:32 10° WNW 06:18:58 37° N 06:27:19 10° ENE visible
05 Dec - 08:15:50 10° NW 08:25:00 68° NNE 08:34:12 10° ESE night (unlit)
05 Dec - 10:21:00 10° WNW 10:29:18 40° SW 10:37:45 10° SSE visible
05 Dec - 23:31:12 10° S 23:37:54 21° SE 23:44:25 10° E daylight
06 Dec - 01:31:59 10° SW 01:41:39 78° SE 01:51:00 10° NE visible
06 Dec - 03:37:58 10° W 03:46:58 46° NNW 03:55:45 10° NE visible
06 Dec - 05:45:13 10° WNW 05:53:39 37° N 06:01:58 10° ENE visible
06 Dec - 07:50:40 10° NW 07:59:48 64° NNE 08:08:56 10° ESE night (unlit)
06 Dec - 09:55:43 10° WNW 10:04:13 44° SW 10:12:50 10° SSE visible
06 Dec - 23:06:42 10° SSE 23:12:49 19° SE 23:18:48 10° E daylight
07 Dec - 01:06:50 10° SW 01:16:30 73° SE 01:25:49 10° ENE visible
07 Dec - 03:12:35 10° W 03:21:41 48° NNW 03:30:34 10° NE visible
07 Dec - 05:19:54 10° WNW 05:28:20 36° N 05:36:37 10° ENE visible
07 Dec - 07:25:29 10° NW 07:34:35 60° NNE 07:43:40 10° ESE night (unlit)
07 Dec - 09:30:28 10° WNW 09:39:07 49° SW 09:47:53 10° SSE night (unlit)
07 Dec - 22:42:19 10° SSE 22:47:45 16° SE 22:53:04 10° E daylight
08 Dec - 00:41:42 10° SW 00:51:21 67° SE 01:00:38 10° ENE daylight
08 Dec - 02:47:12 10° W 02:56:25 50° NNW 03:05:23 10° NE visible
08 Dec - 04:54:34 10° WNW 05:03:00 36° N 05:11:17 10° ENE visible
08 Dec - 07:00:18 10° NW 07:09:22 57° NNE 07:18:22 10° ESE night (unlit)
08 Dec - 09:05:13 10° WNW 09:14:01 53° SW 09:22:54 10° SSE night (unlit)
08 Dec - 22:18:08 10° SSE 22:22:41 14° ESE 22:27:09 10° E daylight
09 Dec - 00:16:37 10° SW 00:26:12 62° SE 00:35:26 10° ENE daylight
09 Dec - 02:21:49 10° W 02:31:10 53° NNW 02:40:13 10° NE visible
09 Dec - 04:29:13 10° WNW 04:37:41 36° N 04:45:58 10° ENE visible
09 Dec - 06:35:06 10° NW 06:44:08 54° NNE 06:53:04 10° ESE visible
09 Dec - 08:40:00 10° WNW 08:48:55 58° SW 08:57:54 10° SSE night (unlit)
09 Dec - 10:49:16 10° WSW 10:52:13 12° WSW 10:55:12 10° SW night (unlit)
09 Dec - 21:54:16 10° SE 21:57:36 12° ESE 22:00:54 10° ESE daylight
09 Dec - 23:51:33 10° SSW 00:01:04 57° SE 00:10:14 10° ENE daylight
10 Dec - 01:56:29 10° WSW 02:05:54 56° NNW 02:15:03 10° NE visible
10 Dec - 04:03:51 10° WNW 04:12:21 36° N 04:20:40 10° ENE visible
10 Dec - 06:09:55 10° NW 06:18:53 51° NNE 06:27:45 10° E visible
10 Dec - 08:14:47 10° WNW 08:23:48 64° SW 08:32:51 10° SE night (unlit)
10 Dec - 10:23:00 10° W 10:27:11 14° WSW 10:31:24 10° SSW night (unlit)
10 Dec - 21:31:40 10° SE 21:32:33 10° ESE 21:33:26 10° ESE daylight
10 Dec - 23:26:31 10° SSW 23:35:56 52° SE 23:45:01 10° ENE daylight
11 Dec - 01:31:07 10° WSW 01:40:39 59° NNW 01:49:53 10° NE visible
11 Dec - 03:38:28 10° WNW 03:47:01 36° N 03:55:22 10° ENE visible
11 Dec - 05:44:42 10° NW 05:53:38 49° NNE 06:02:26 10° E visible
11 Dec - 07:49:34 10° WNW 07:58:42 69° SW 08:07:48 10° SE night (unlit)
11 Dec - 09:57:05 10° W 10:02:08 16° SW 10:07:14 10° SSW night (unlit)
11 Dec - 23:01:30 10° SSW 23:10:48 48° SE 23:19:46 10° ENE daylight
12 Dec - 01:05:47 10° WSW 01:15:25 63° NNW 01:24:43 10° NE visible
12 Dec - 03:13:04 10° WNW 03:21:41 37° N 03:30:04 10° ENE visible
12 Dec - 05:19:28 10° NW 05:28:22 46° NNE 05:37:06 10° E visible
12 Dec - 07:24:22 10° WNW 07:33:34 75° SW 07:42:43 10° SE night (unlit)
12 Dec - 09:31:22 10° W 09:37:05 18° SW 09:42:53 10° SSW night (unlit)
12 Dec - 22:36:32 10° SSW 22:45:40 44° SE 22:54:30 10° ENE daylight
13 Dec - 00:40:28 10° WSW 00:50:11 67° NNW 00:59:34 10° NE daylight
13 Dec - 02:47:40 10° WNW 02:56:22 37° N 03:04:48 10° ENE visible
13 Dec - 04:54:14 10° NW 05:03:05 44° NNE 05:11:46 10° E visible
13 Dec - 06:59:10 10° NW 07:08:25 81° SW 07:17:36 10° SE night (unlit)
13 Dec - 09:05:45 10° W 09:12:04 21° SW 09:18:24 10° S night (unlit)
13 Dec - 22:11:35 10° SSW 22:20:33 40° SE 22:29:13 10° ENE daylight
